User: anonymous   Login
Location: Valdosta
(30.8330°N, 83.2790°W)
Time: 03:37:10
(UTC-05:00)
Language:

Oscar 19 - Orbit

View from above orbital plane
View from above orbital plane
View from above satellite
View from above satellite

Ground track
Ground track

The orbit data is extracted from the following two-line orbital elements,

1 20442U 90005G   14326.83033555  .00000227  00000-0  99495-4 0  1111
2 20442 098.4934 261.4537 0012421 044.0245 316.1926 14.32631200297398
Epoch (UTC): 22 November 2014 19:55:40
Eccentricity: 0.0012421
inclination: 98.4934°
perigee height: 774 km
apogee height: 792 km
right ascension of ascending node: 261.4537°
argument of perigee: 44.0245°
revolutions per day: 14.32631200
mean anomaly at epoch: 316.1926°
orbit number at epoch: 29739

The dashed part of the orbit path shows where the satellite is in the earth's shadow,  

DLR